M I D A S
Marine Information and Data Acquisition System
Tripno 1911 of the Zeeleeuw from 2010-06-30 05:02:48 to 2010-06-30 15:26:22
Back to CruiseResearch ActivitiesStationsMapUnderway DataData graphs

EquipmentUnitsComments
TimeDGPSUTC
LatitudeDGPSDM.mWGS84
LongitudeDGPSDM.mWGS84
SpeedMeteo Stationm/sRelative wind speed
DirectionMeteo StationdegRelative wind direction
TemperatureMeteo Stationdeg CelciusAir temperature
PressureMeteo StationPaAtmospheric pressure
HumidityMeteo Station%Relative humidity
Missing or incorrect values are displayed as -999
Metereological data collected by the RV Zeeleeuw from 2010-06-30 04:56:18 to 2010-06-30 15:37:12
Time Latitude Longitude Speed Direction Temperature Pressure Humidity
2010-06-30 04:57 51°13.67 2°55.914 0.1 10 15.5 101920 49
2010-06-30 04:58 51°13.693 2°55.826 3.1 39 15.6 101920 48
2010-06-30 04:59 51°13.716 2°55.756 1.5 27 15.6 101920 48
2010-06-30 05:00 51°13.71 2°55.738 4.2 51 15.6 101920 50
2010-06-30 05:01 51°13.721 2°55.724 0.4 304 15.5 101920 50
2010-06-30 05:02 51°13.785 2°55.668 2.1 301 15.6 101920 49
2010-06-30 05:03 51°13.882 2°55.591 2.5 306 15.7 101920 50
2010-06-30 05:04 51°13.991 2°55.51 3 301 15.7 101920 49
2010-06-30 05:05 51°14.103 2°55.425 2.3 307 15.7 101920 48
2010-06-30 05:06 51°14.235 2°55.324 3.2 301 15.8 101920 48
2010-06-30 05:07 51°14.373 2°55.213 4 306 15.9 101920 49
2010-06-30 05:08 51°14.532 2°55.075 4.8 307 16 101910 48
2010-06-30 05:09 51°14.718 2°54.88 5.2 307 16 101910 48
2010-06-30 05:10 51°14.897 2°54.663 5.9 302 15.9 101920 48
2010-06-30 05:11 51°15.074 2°54.446 5.8 308 16 101910 48
2010-06-30 05:12 51°15.26 2°54.241 5.7 303 16 101910 49
2010-06-30 05:13 51°15.446 2°54.038 6.6 303 16.1 101910 50
2010-06-30 05:14 51°15.626 2°53.822 7.8 309 16.2 101910 49
2010-06-30 05:15 51°15.795 2°53.586 6.9 310 16.3 101910 49
2010-06-30 05:16 51°15.974 2°53.367 4.6 302 16.4 101920 51
2010-06-30 05:17 51°16.192 2°53.252 3.9 307 16.4 101930 50
2010-06-30 05:18 51°16.416 2°53.156 7 307 16.6 101920 50
2010-06-30 05:19 51°16.639 2°53.059 6.9 307 16.8 101920 49
2010-06-30 05:20 51°16.859 2°52.953 9.8 307 16.9 101910 49
2010-06-30 05:21 51°17.075 2°52.828 8.3 302 16.9 101910 50
2010-06-30 05:22 51°17.282 2°52.669 9.1 302 16.9 101910 49
2010-06-30 05:23 51°17.477 2°52.479 8.9 306 16.9 101900 50
2010-06-30 05:24 51°17.667 2°52.283 7.5 308 16.9 101900 49
2010-06-30 05:25 51°17.854 2°52.076 9 307 16.9 101910 50
2010-06-30 05:26 51°18.041 2°51.871 8.9 305 16.9 101900 49
2010-06-30 05:27 51°18.228 2°51.667 9.5 303 16.8 101910 50
2010-06-30 05:28 51°18.416 2°51.463 9.2 303 16.8 101900 48
2010-06-30 05:29 51°18.604 2°51.26 8.7 305 16.7 101900 49
2010-06-30 05:30 51°18.792 2°51.059 10 306 16.6 101900 49
2010-06-30 05:31 51°18.977 2°50.853 11.4 308 16.5 101890 49
2010-06-30 05:32 51°19.164 2°50.647 10 303 16.5 101890 49
2010-06-30 05:33 51°19.349 2°50.44 9.7 302 16.4 101890 50
2010-06-30 05:34 51°19.534 2°50.232 9.2 302 16.4 101890 50
2010-06-30 05:35 51°19.721 2°50.024 9.4 302 16.3 101900 50
2010-06-30 05:36 51°19.907 2°49.817 8.8 301 16.2 101900 48
2010-06-30 05:37 51°20.097 2°49.614 11.1 304 16.2 101890 49
2010-06-30 05:38 51°20.286 2°49.412 11 306 16.1 101890 50
2010-06-30 05:39 51°20.473 2°49.21 11.1 307 16 101870 49
2010-06-30 05:40 51°20.66 2°49.007 10.6 305 15.9 101870 49
2010-06-30 05:41 51°20.847 2°48.805 12.2 304 15.8 101880 50
2010-06-30 05:42 51°21.033 2°48.602 10.8 303 15.7 101880 49
2010-06-30 05:43 51°21.224 2°48.411 12.3 303 15.7 101870 48
2010-06-30 05:44 51°21.417 2°48.22 9.4 304 15.6 101880 49
2010-06-30 05:45 51°21.609 2°48.029 10.1 306 15.6 101880 49
2010-06-30 05:46 51°21.8 2°47.836 9.4 303 15.5 101880 50
2010-06-30 05:47 51°21.996 2°47.646 9.1 306 15.5 101880 49
2010-06-30 05:48 51°22.192 2°47.458 10.9 307 15.5 101870 49
2010-06-30 05:49 51°22.389 2°47.272 9.4 308 15.4 101870 50
2010-06-30 05:50 51°22.588 2°47.094 9.3 306 15.4 101870 49
2010-06-30 05:51 51°22.774 2°46.894 10.3 308 15.4 101870 49
2010-06-30 05:52 51°22.93 2°46.635 10.9 309 15.3 101870 48
2010-06-30 05:53 51°23.085 2°46.372 10.5 304 15.3 101860 49
2010-06-30 05:54 51°23.232 2°46.099 9.9 300 15.3 101870 48
2010-06-30 05:55 51°23.376 2°45.824 10.1 307 15.2 101870 49
2010-06-30 05:56 51°23.522 2°45.548 10.3 303 15.2 101860 48
2010-06-30 05:57 51°23.668 2°45.277 11 308 15.2 101870 49
2010-06-30 05:58 51°23.814 2°45.009 10 305 15.1 101870 49
2010-06-30 05:59 51°23.943 2°44.721 12.2 301 15.1 101870 48
2010-06-30 06:00 51°24.069 2°44.43 9.9 304 15.1 101860 47
2010-06-30 06:01 51°24.198 2°44.141 11.1 306 15 101870 49
2010-06-30 06:02 51°24.343 2°43.871 10.9 304 15 101860 49
2010-06-30 06:03 51°24.522 2°43.655 9.2 302 15 101860 48
2010-06-30 06:04 51°24.707 2°43.45 11.7 308 15 101870 49
2010-06-30 06:05 51°24.887 2°43.234 11.3 302 14.9 101860 49
2010-06-30 06:06 51°25.066 2°43.015 12.7 304 14.9 101860 49
2010-06-30 06:07 51°25.245 2°42.793 9.6 307 14.9 101870 48
2010-06-30 06:08 51°25.421 2°42.576 9.3 306 14.9 101860 47
2010-06-30 06:09 51°25.604 2°42.351 10 307 14.9 101870 48
2010-06-30 06:10 51°25.788 2°42.138 11 306 14.8 101870 48
2010-06-30 06:11 51°25.97 2°41.921 12.3 304 14.8 101870 49
2010-06-30 06:12 51°26.153 2°41.701 9.9 302 14.8 101870 48
2010-06-30 06:13 51°26.335 2°41.482 9.6 310 14.8 101870 49
2010-06-30 06:14 51°26.518 2°41.264 10.1 304 14.8 101870 49
2010-06-30 06:15 51°26.701 2°41.049 10 306 14.8 101880 50
2010-06-30 06:16 51°26.885 2°40.835 10.7 308 14.9 101880 47
2010-06-30 06:17 51°27.068 2°40.622 10.5 302 14.9 101870 49
2010-06-30 06:18 51°27.252 2°40.41 9.9 308 14.9 101870 48
2010-06-30 06:19 51°27.436 2°40.196 9.1 308 14.9 101870 50
2010-06-30 06:20 51°27.619 2°39.981 10.2 306 14.9 101880 49
2010-06-30 06:21 51°27.804 2°39.765 10.1 306 14.9 101880 49
2010-06-30 06:22 51°27.989 2°39.551 11.7 307 14.9 101880 49
2010-06-30 06:23 51°28.176 2°39.335 10.7 304 15 101880 49
2010-06-30 06:24 51°28.362 2°39.119 11.3 305 14.9 101880 47
2010-06-30 06:25 51°28.548 2°38.901 10 307 15 101880 50
2010-06-30 06:26 51°28.727 2°38.685 10.2 307 15 101880 49
2010-06-30 06:27 51°28.914 2°38.466 9.9 301 15 101880 49
2010-06-30 06:28 51°29.098 2°38.25 10.6 304 15 101890 49
2010-06-30 06:29 51°29.28 2°38.037 11.2 302 14.9 101890 49
2010-06-30 06:30 51°29.464 2°37.824 9.6 307 14.9 101890 49
2010-06-30 06:31 51°29.647 2°37.609 11 303 14.9 101890 49
2010-06-30 06:32 51°29.828 2°37.392 9.4 306 14.9 101880 47
2010-06-30 06:33 51°30.01 2°37.174 9.8 302 14.8 101880 50
2010-06-30 06:34 51°30.204 2°36.98 9.6 309 14.8 101890 48
2010-06-30 06:35 51°30.423 2°36.862 8.5 303 14.8 101900 48
2010-06-30 06:36 51°30.646 2°36.753 7.4 308 14.8 101890 48
2010-06-30 06:37 51°30.878 2°36.693 7 308 14.8 101900 49
2010-06-30 06:38 51°31.112 2°36.649 6.1 309 14.8 101900 48
2010-06-30 06:39 51°31.348 2°36.665 5.5 306 14.8 101910 49
2010-06-30 06:40 51°31.583 2°36.69 5.6 303 14.9 101910 47
2010-06-30 06:41 51°31.814 2°36.715 5.7 304 14.9 101910 48
2010-06-30 06:42 51°32.041 2°36.74 5.5 308 14.9 101910 48
2010-06-30 06:43 51°32.278 2°36.759 6 304 15 101910 50
2010-06-30 06:44 51°32.51 2°36.778 5.7 306 15 101920 49
2010-06-30 06:45 51°32.741 2°36.803 6.1 304 15.1 101920 48
2010-06-30 06:46 51°32.97 2°36.832 4.7 300 15.2 101920 49
2010-06-30 06:47 51°33.2 2°36.854 6.6 307 15.2 101920 48
2010-06-30 06:48 51°33.432 2°36.86 6.7 305 15.2 101920 49
2010-06-30 06:49 51°33.661 2°36.867 6.1 309 15.2 101910 50
2010-06-30 06:50 51°33.893 2°36.867 7.6 308 15.2 101910 48
2010-06-30 06:51 51°34.124 2°36.855 9 308 15.2 101920 48
2010-06-30 06:52 51°34.353 2°36.842 6.2 301 15.2 101920 49
2010-06-30 06:53 51°34.582 2°36.829 6.6 303 15.2 101910 49
2010-06-30 06:54 51°34.812 2°36.816 7.1 306 15.2 101920 48
2010-06-30 06:55 51°35.04 2°36.795 8 307 15.2 101920 48
2010-06-30 06:56 51°35.263 2°36.713 7.7 301 15.2 101920 49
2010-06-30 06:57 51°35.487 2°36.621 8.4 303 15.2 101920 48
2010-06-30 06:58 51°35.711 2°36.534 9.6 309 15.3 101910 49
2010-06-30 06:59 51°35.932 2°36.44 9.6 306 15.2 101920 48
2010-06-30 07:00 51°36.138 2°36.28 10.3 308 15.2 101910 48
2010-06-30 07:01 51°36.338 2°36.101 11.2 307 15.2 101910 49
2010-06-30 07:02 51°36.539 2°35.927 10.4 302 15.2 101910 49
2010-06-30 07:03 51°36.741 2°35.756 10.7 306 15.1 101910 49
2010-06-30 07:04 51°36.941 2°35.577 9.3 301 15.1 101910 47
2010-06-30 07:05 51°37.137 2°35.395 9.4 302 15.1 101910 49
2010-06-30 07:06 51°37.333 2°35.211 9.8 307 15.1 101920 49
2010-06-30 07:07 51°37.528 2°35.026 9.4 310 15.1 101910 49
2010-06-30 07:08 51°37.724 2°34.845 11.5 306 15 101910 48
2010-06-30 07:09 51°37.92 2°34.659 10.9 304 15 101920 49
2010-06-30 07:10 51°38.102 2°34.436 10.5 304 15 101920 48
2010-06-30 07:11 51°38.238 2°34.151 13.4 302 15 101920 49
2010-06-30 07:12 51°38.357 2°33.834 12.2 307 15.1 101920 48
2010-06-30 07:13 51°38.47 2°33.52 11.7 300 15.1 101930 49
2010-06-30 07:14 51°38.588 2°33.209 11.7 302 15.1 101930 49
2010-06-30 07:15 51°38.7 2°32.917 9.1 301 15.1 101920 48
2010-06-30 07:16 51°38.769 2°32.748 7.8 307 15.1 101930 49
2010-06-30 07:17 51°38.811 2°32.645 7 307 15.1 101940 48
2010-06-30 07:18 51°38.855 2°32.55 7.6 303 15.1 101940 50
2010-06-30 07:19 51°38.902 2°32.452 7 306 15.1 101940 49
2010-06-30 07:20 51°38.936 2°32.372 6.1 309 15.1 101940 47
2010-06-30 07:21 51°38.967 2°32.312 5.4 301 15.1 101950 50
2010-06-30 07:22 51°38.99 2°32.275 4.6 307 15.1 101940 47
2010-06-30 07:23 51°39.007 2°32.252 5.1 309 15.2 101950 50
2010-06-30 07:24 51°39.021 2°32.238 4.9 300 15.2 101960 49
2010-06-30 07:25 51°39.032 2°32.232 4.8 306 15.2 101960 47
2010-06-30 07:26 51°39.021 2°32.252 6.6 307 15.2 101960 48
2010-06-30 07:27 51°38.998 2°32.259 4.7 303 15.2 101960 50
2010-06-30 07:28 51°39 2°32.261 4.9 58 15.1 101960 46
2010-06-30 07:29 51°39.003 2°32.26 3.7 308 15.1 101950 48
2010-06-30 07:30 51°39.009 2°32.259 2.7 304 15 101960 48
2010-06-30 07:31 51°39.016 2°32.258 4.9 303 15 101960 48
2010-06-30 07:32 51°39.02 2°32.259 3.3 307 15.1 101960 48
2010-06-30 07:33 51°39.009 2°32.263 4 308 15.1 101960 48
2010-06-30 07:34 51°39.001 2°32.261 5.3 55 15 101960 50
2010-06-30 07:35 51°39.009 2°32.262 5.8 310 15 101970 49
2010-06-30 07:36 51°39.016 2°32.262 5.3 304 15 101960 48
2010-06-30 07:37 51°39.018 2°32.263 3.3 303 14.9 101970 47
2010-06-30 07:38 51°39.017 2°32.265 3.5 308 14.9 101960 50
2010-06-30 07:39 51°39.01 2°32.265 4.4 307 14.9 101960 48
2010-06-30 07:40 51°39.012 2°32.267 6.7 306 14.9 101960 48
2010-06-30 07:41 51°39.01 2°32.268 5 59 14.9 101970 48
2010-06-30 07:42 51°39.004 2°32.268 6.1 52 14.8 101970 49
2010-06-30 07:43 51°38.985 2°32.256 7.1 59 14.8 101960 49
2010-06-30 07:44 51°38.945 2°32.21 7.9 52 14.7 101960 46
2010-06-30 07:45 51°38.929 2°32.188 5.1 52 14.7 101970 47
2010-06-30 07:46 51°38.934 2°32.196 3.9 53 14.6 101960 47
2010-06-30 07:47 51°38.944 2°32.21 4.7 52 14.6 101960 50
2010-06-30 07:48 51°38.955 2°32.219 3.7 56 14.6 101960 49
2010-06-30 07:49 51°38.974 2°32.242 3 53 14.6 101970 47
2010-06-30 07:50 51°38.987 2°32.291 3.6 55 14.7 101970 47
2010-06-30 07:51 51°38.988 2°32.332 3.8 58 14.6 101970 47
2010-06-30 07:52 51°38.992 2°32.381 3.3 57 14.6 101970 46
2010-06-30 07:53 51°39.02 2°32.41 4.1 304 14.6 101970 50
2010-06-30 07:54 51°39.042 2°32.414 4.1 306 14.6 101970 49
2010-06-30 07:55 51°39.055 2°32.412 4.9 309 14.6 101970 49
2010-06-30 07:56 51°39.059 2°32.408 4.8 306 14.7 101970 48
2010-06-30 07:57 51°39.061 2°32.407 4.2 303 14.7 101970 47
2010-06-30 07:58 51°39.062 2°32.406 4.6 303 14.8 101970 47
2010-06-30 07:59 51°39.064 2°32.405 4.5 306 14.8 101980 49
2010-06-30 08:00 51°39.065 2°32.403 5.6 308 14.8 101970 46
2010-06-30 08:01 51°39.065 2°32.406 5.1 303 14.8 101980 47
2010-06-30 08:02 51°39.065 2°32.409 5.5 300 14.8 101970 47
2010-06-30 08:03 51°39.065 2°32.412 4.8 303 14.8 101970 50
2010-06-30 08:04 51°39.063 2°32.414 4.8 308 14.7 101980 47
2010-06-30 08:05 51°39.061 2°32.416 3.5 302 14.7 101970 47
2010-06-30 08:06 51°39.059 2°32.418 3.8 306 14.7 101980 49
2010-06-30 08:07 51°39.056 2°32.418 2.9 307 14.7 101980 48
2010-06-30 08:08 51°39.054 2°32.418 2.9 301 14.6 101980 46
2010-06-30 08:09 51°39.052 2°32.418 3.4 301 14.6 101970 50
2010-06-30 08:10 51°39.051 2°32.415 3 309 14.6 101980 48
2010-06-30 08:11 51°39.05 2°32.413 4.5 301 14.6 101980 48
2010-06-30 08:12 51°39.049 2°32.41 4.4 306 14.6 101980 50
2010-06-30 08:13 51°39.048 2°32.407 4 304 14.7 101980 48
2010-06-30 08:14 51°39.046 2°32.405 3.9 310 14.7 101980 48
2010-06-30 08:15 51°39.045 2°32.403 3.8 302 14.7 101990 47
2010-06-30 08:16 51°39.043 2°32.402 6.1 309 14.7 101990 48
2010-06-30 08:17 51°39.043 2°32.403 4.5 302 14.7 101990 48
2010-06-30 08:18 51°39.041 2°32.4 4.6 307 14.6 101980 47
2010-06-30 08:19 51°39.04 2°32.397 4.5 308 14.6 101990 49
2010-06-30 08:20 51°39.038 2°32.395 5 303 14.7 101990 48
2010-06-30 08:21 51°39.037 2°32.393 5.4 309 14.7 101990 50
2010-06-30 08:22 51°39.036 2°32.391 5.8 306 14.6 101980 49
2010-06-30 08:23 51°39.037 2°32.387 5.6 303 14.7 101980 50
2010-06-30 08:24 51°39.034 2°32.385 6.1 302 14.7 101980 47
2010-06-30 08:25 51°39.032 2°32.385 4.6 307 14.7 101980 47
2010-06-30 08:26 51°39.03 2°32.385 4.1 309 14.7 101980 48
2010-06-30 08:27 51°39.025 2°32.384 4.8 307 14.7 101980 47
2010-06-30 08:28 51°39.021 2°32.382 5.1 302 14.7 101990 47
2010-06-30 08:29 51°39.016 2°32.384 5 305 14.7 101990 47
2010-06-30 08:30 51°39.012 2°32.385 3.4 301 14.7 101990 48
2010-06-30 08:31 51°39.007 2°32.385 3 307 14.8 101990 50
2010-06-30 08:32 51°39.003 2°32.385 3.4 307 14.7 101990 47
2010-06-30 08:33 51°38.997 2°32.384 4 303 14.7 101990 47
2010-06-30 08:34 51°38.991 2°32.384 3 307 14.7 101990 50
2010-06-30 08:35 51°38.987 2°32.382 3.2 307 14.7 101990 48
2010-06-30 08:36 51°38.982 2°32.382 2.7 306 14.7 101990 50
2010-06-30 08:37 51°38.977 2°32.38 2.4 308 14.7 101990 47
2010-06-30 08:38 51°38.973 2°32.375 2.4 307 14.6 101990 50
2010-06-30 08:39 51°38.969 2°32.37 3.7 308 14.6 101990 47
2010-06-30 08:40 51°38.966 2°32.364 3.3 302 14.7 101980 47
2010-06-30 08:41 51°38.962 2°32.36 3.9 307 14.7 101980 50
2010-06-30 08:42 51°38.958 2°32.353 4.5 303 14.7 101990 49
2010-06-30 08:43 51°38.953 2°32.348 4.1 301 14.8 101980 48
2010-06-30 08:44 51°38.946 2°32.343 4.3 303 14.8 101980 47
2010-06-30 08:45 51°38.94 2°32.339 3.7 309 14.9 101980 48
2010-06-30 08:46 51°38.933 2°32.336 5.2 307 14.9 101980 49
2010-06-30 08:47 51°38.926 2°32.333 2.9 307 14.9 101980 47
2010-06-30 08:48 51°38.918 2°32.33 3.7 301 14.9 101980 50
2010-06-30 08:49 51°38.91 2°32.327 3.5 306 14.8 101990 50
2010-06-30 08:50 51°38.901 2°32.322 2.7 308 14.8 101980 47
2010-06-30 08:51 51°38.892 2°32.318 2.5 302 14.8 101980 49
2010-06-30 08:52 51°38.883 2°32.312 2 308 14.8 101980 47
2010-06-30 08:53 51°38.873 2°32.306 2.4 303 14.8 101980 47
2010-06-30 08:54 51°38.864 2°32.298 2.3 303 14.8 101980 50
2010-06-30 08:55 51°38.855 2°32.289 2.6 307 14.8 101980 47
2010-06-30 08:56 51°38.846 2°32.279 3 303 14.9 101980 46
2010-06-30 08:57 51°38.837 2°32.268 4.1 309 14.9 101980 50
2010-06-30 08:58 51°38.828 2°32.256 4.1 303 15 101980 47
2010-06-30 08:59 51°38.817 2°32.245 4.3 307 15.1 101980 47
2010-06-30 09:00 51°38.806 2°32.235 4.6 303 15.1 101980 48
2010-06-30 09:01 51°38.795 2°32.227 5.8 306 15.2 101980 49
2010-06-30 09:02 51°38.783 2°32.219 3.7 303 15.2 101980 48
2010-06-30 09:03 51°38.77 2°32.211 3.5 302 15.2 101980 48
2010-06-30 09:04 51°38.757 2°32.202 3.2 301 15.2 101980 46
2010-06-30 09:05 51°38.743 2°32.191 4.3 309 15.1 101980 50
2010-06-30 09:06 51°38.729 2°32.181 4.4 301 15.1 101980 48
2010-06-30 09:07 51°38.716 2°32.169 4.1 304 15.1 101970 49
2010-06-30 09:08 51°38.703 2°32.158 2.8 307 15.1 101970 48
2010-06-30 09:09 51°38.69 2°32.145 3.3 304 15.1 101960 50
2010-06-30 09:10 51°38.678 2°32.133 3.2 304 15.1 101970 49
2010-06-30 09:11 51°38.666 2°32.12 2.8 301 15.1 101960 51
2010-06-30 09:12 51°38.654 2°32.106 3.3 307 15.2 101970 49
2010-06-30 09:13 51°38.642 2°32.093 3.7 306 15.2 101970 47
2010-06-30 09:14 51°38.635 2°32.073 4.5 303 15.2 101960 51
2010-06-30 09:15 51°38.637 2°32.03 4 306 15.3 101960 50
2010-06-30 09:16 51°38.642 2°31.972 4.2 307 15.3 101950 48
2010-06-30 09:17 51°38.646 2°31.923 4.3 309 15.4 101950 49
2010-06-30 09:18 51°38.648 2°31.875 4.2 301 15.4 101950 51
2010-06-30 09:19 51°38.66 2°31.818 3.1 307 15.4 101950 49
2010-06-30 09:20 51°38.696 2°31.822 1 58 15.3 101960 49
2010-06-30 09:21 51°38.739 2°31.884 1.4 60 15.6 101960 49
2010-06-30 09:22 51°38.786 2°31.956 -999 55 15.4 101970 49
2010-06-30 09:23 51°38.802 2°32.002 3 36 15.4 101960 48
2010-06-30 09:24 51°38.792 2°32.035 2.8 30 15.3 101970 48
2010-06-30 09:25 51°38.806 2°32.109 0.5 40 15.3 101960 51
2010-06-30 09:26 51°38.917 2°32.19 0.1 305 15.4 101960 49
2010-06-30 09:27 51°39.046 2°32.268 1.1 57 15.5 101960 51
2010-06-30 09:28 51°39.086 2°32.311 2.9 43 15.6 101960 49
2010-06-30 09:29 51°39.082 2°32.336 3.2 41 15.4 101960 51
2010-06-30 09:30 51°39.073 2°32.337 3.4 57 15.4 101960 48
2010-06-30 09:31 51°39.064 2°32.337 3.8 59 15.3 101960 48
2010-06-30 09:32 51°39.054 2°32.331 3.3 59 15.3 101970 48
2010-06-30 09:33 51°39.042 2°32.325 3.8 59 15.3 101970 49
2010-06-30 09:34 51°39.031 2°32.323 3.1 41 15.3 101970 48
2010-06-30 09:35 51°39.017 2°32.32 4.4 41 15.3 101970 48
2010-06-30 09:36 51°39 2°32.315 4.2 34 15.3 101970 47
2010-06-30 09:37 51°38.983 2°32.299 3.5 34 15.3 101970 48
2010-06-30 09:38 51°38.968 2°32.26 3.8 40 15.3 101970 48
2010-06-30 09:39 51°38.968 2°32.265 3.4 52 15.3 101980 51
2010-06-30 09:40 51°38.995 2°32.24 3 54 15.3 101970 48
2010-06-30 09:41 51°39.005 2°32.221 4.1 53 15.3 101970 48
2010-06-30 09:42 51°39.007 2°32.226 3.2 57 15.3 101980 50
2010-06-30 09:43 51°39.009 2°32.26 1.7 53 15.4 101970 48
2010-06-30 09:44 51°39.014 2°32.262 1.2 52 15.4 101980 47
2010-06-30 09:45 51°39.014 2°32.268 3 52 15.7 101980 49
2010-06-30 09:46 51°39.01 2°32.275 3.1 54 15.5 101970 50
2010-06-30 09:47 51°38.996 2°32.264 3.4 57 15.4 101980 51
2010-06-30 09:48 51°38.979 2°32.242 4 43 15.4 101970 50
2010-06-30 09:49 51°38.96 2°32.222 3.7 41 15.4 101970 49
2010-06-30 09:50 51°38.942 2°32.211 3.6 41 15.4 101970 48
2010-06-30 09:51 51°38.946 2°32.221 3.6 52 15.4 101970 47
2010-06-30 09:52 51°38.995 2°32.228 1.5 60 15.5 101970 46
2010-06-30 09:53 51°39.026 2°32.27 1.9 57 15.5 101970 49
2010-06-30 09:54 51°39.023 2°32.287 3.7 52 15.5 101970 48
2010-06-30 09:55 51°39.008 2°32.281 3.8 52 15.5 101970 51
2010-06-30 09:56 51°38.987 2°32.264 3.9 43 15.4 101970 51
2010-06-30 09:57 51°38.968 2°32.246 3.5 36 15.4 101970 49
2010-06-30 09:58 51°38.948 2°32.233 3.8 33 15.5 101970 48
2010-06-30 09:59 51°38.927 2°32.225 3.7 34 15.5 101980 49
2010-06-30 10:00 51°38.903 2°32.227 3.7 24 15.5 101970 49
2010-06-30 10:01 51°38.851 2°32.259 4.8 6 15.5 101980 50
2010-06-30 10:02 51°38.732 2°32.392 6.3 354 15.4 101970 48
2010-06-30 10:03 51°38.585 2°32.571 7.2 353 15.4 101960 49
2010-06-30 10:04 51°38.436 2°32.756 8.1 353 15.4 101970 47
2010-06-30 10:05 51°38.286 2°32.943 7.1 351 15.3 101960 48
2010-06-30 10:06 51°38.124 2°33.151 8.6 352 15.3 101960 50
2010-06-30 10:07 51°37.957 2°33.372 8.7 352 15.3 101960 48
2010-06-30 10:08 51°37.788 2°33.599 9.1 350 15.3 101960 46
2010-06-30 10:09 51°37.611 2°33.836 9.8 350 15.3 101960 48
2010-06-30 10:10 51°37.436 2°34.065 9.2 352 15.3 101960 49
2010-06-30 10:11 51°37.266 2°34.285 8.8 355 15.3 101960 50
2010-06-30 10:12 51°37.067 2°34.452 9.4 347 15.3 101960 49
2010-06-30 10:13 51°36.832 2°34.496 11 345 15.3 101950 49
2010-06-30 10:14 51°36.591 2°34.529 11.7 344 15.4 101960 49
2010-06-30 10:15 51°36.351 2°34.559 11.5 345 15.4 101970 48
2010-06-30 10:16 51°36.11 2°34.593 10.3 344 15.4 101960 48
2010-06-30 10:17 51°35.867 2°34.626 10 342 15.5 101960 50
2010-06-30 10:18 51°35.62 2°34.658 10.7 342 15.5 101960 49
2010-06-30 10:19 51°35.377 2°34.688 9.3 341 15.6 101960 48
2010-06-30 10:20 51°35.138 2°34.721 9.6 342 15.6 101960 50
2010-06-30 10:21 51°34.901 2°34.811 10 344 15.6 101960 49
2010-06-30 10:22 51°34.674 2°34.904 9.1 342 15.6 101960 49
2010-06-30 10:23 51°34.443 2°34.999 9.9 344 15.6 101960 50
2010-06-30 10:24 51°34.216 2°35.11 9.1 343 15.6 101950 48
2010-06-30 10:25 51°33.987 2°35.23 10.5 346 15.5 101960 48
2010-06-30 10:26 51°33.765 2°35.346 10.6 348 15.5 101960 49
2010-06-30 10:27 51°33.546 2°35.493 9.8 348 15.5 101970 50
2010-06-30 10:28 51°33.328 2°35.645 8.4 347 15.5 101960 49
2010-06-30 10:29 51°33.112 2°35.794 9.6 348 15.5 101970 49
2010-06-30 10:30 51°32.888 2°35.949 8 346 15.5 101960 48
2010-06-30 10:31 51°32.672 2°36.097 8.9 347 15.5 101970 49
2010-06-30 10:32 51°32.428 2°36.143 10.2 342 15.6 101960 49
2010-06-30 10:33 51°32.18 2°36.116 11.5 341 15.7 101950 49
2010-06-30 10:34 51°31.93 2°36.036 10.1 336 15.7 101960 49
2010-06-30 10:35 51°31.691 2°35.921 11.5 337 15.8 101960 50
2010-06-30 10:36 51°31.449 2°35.809 11.5 339 15.8 101960 51
2010-06-30 10:37 51°31.202 2°35.698 10.1 340 15.8 101960 50
2010-06-30 10:38 51°30.964 2°35.579 10.3 337 15.9 101960 49
2010-06-30 10:39 51°30.723 2°35.456 10.2 339 15.9 101960 49
2010-06-30 10:40 51°30.482 2°35.338 9.7 338 15.9 101950 50
2010-06-30 10:41 51°30.236 2°35.219 11.1 339 16 101950 49
2010-06-30 10:42 51°30 2°35.098 10.6 339 16 101950 49
2010-06-30 10:43 51°29.764 2°34.946 10.2 337 16 101960 49
2010-06-30 10:44 51°29.528 2°34.794 10.1 337 16 101960 49
2010-06-30 10:45 51°29.292 2°34.643 9.6 337 16 101950 50
2010-06-30 10:46 51°29.056 2°34.495 11.5 339 16 101970 50
2010-06-30 10:47 51°28.817 2°34.341 11.3 339 16 101960 49
2010-06-30 10:48 51°28.584 2°34.191 11.2 340 16 101950 49
2010-06-30 10:49 51°28.354 2°34.041 11.8 339 16 101950 49
2010-06-30 10:50 51°28.116 2°33.887 12 338 16 101960 49
2010-06-30 10:51 51°27.886 2°33.739 12.2 340 16 101960 49
2010-06-30 10:52 51°27.653 2°33.587 11.1 339 16 101960 49
2010-06-30 10:53 51°27.417 2°33.434 11 339 15.9 101970 49
2010-06-30 10:54 51°27.183 2°33.278 12.2 341 15.9 101960 49
2010-06-30 10:55 51°26.945 2°33.119 10.8 342 15.9 101960 49
2010-06-30 10:56 51°26.71 2°32.964 11.6 340 15.8 101970 50
2010-06-30 10:57 51°26.475 2°32.808 11.1 340 15.8 101960 50
2010-06-30 10:58 51°26.244 2°32.656 11 339 15.9 101960 49
2010-06-30 10:59 51°26.01 2°32.504 11.1 339 15.9 101950 49
2010-06-30 11:00 51°25.777 2°32.347 12.2 339 16 101950 49
2010-06-30 11:01 51°25.544 2°32.192 10 340 16 101960 48
2010-06-30 11:02 51°25.311 2°32.039 11.6 340 16.1 101960 49
2010-06-30 11:03 51°25.076 2°31.892 8.9 340 16.1 101960 49
2010-06-30 11:04 51°24.914 2°31.764 6.7 337 16.1 101970 49
2010-06-30 11:05 51°24.864 2°31.655 4.6 326 16.2 101970 50
2010-06-30 11:06 51°24.845 2°31.583 4.6 301 16.2 101980 51
2010-06-30 11:07 51°24.837 2°31.543 4.6 306 16.2 101980 50
2010-06-30 11:08 51°24.831 2°31.51 3.9 306 16.3 101970 49
2010-06-30 11:09 51°24.825 2°31.486 4.2 304 16.4 101980 51
2010-06-30 11:10 51°24.813 2°31.466 3.6 304 16.5 101980 48
2010-06-30 11:11 51°24.8 2°31.45 3.1 302 16.5 101980 50
2010-06-30 11:12 51°24.787 2°31.435 2.8 308 16.4 101980 48
2010-06-30 11:13 51°24.775 2°31.419 4.4 53 16.4 101980 49
2010-06-30 11:14 51°24.765 2°31.402 4.4 54 16.4 101980 50
2010-06-30 11:15 51°24.755 2°31.386 3.9 60 16.4 101970 47
2010-06-30 11:16 51°24.747 2°31.369 3.8 60 16.4 101980 48
2010-06-30 11:17 51°24.739 2°31.352 4.2 304 16.4 101980 48
2010-06-30 11:18 51°24.732 2°31.334 3.2 307 16.5 101970 47
2010-06-30 11:19 51°24.725 2°31.316 2.6 307 16.5 101970 48
2010-06-30 11:20 51°24.718 2°31.298 2.9 307 16.5 101970 47
2010-06-30 11:21 51°24.711 2°31.278 4.4 308 16.5 101970 47
2010-06-30 11:22 51°24.702 2°31.257 4.3 301 16.6 101970 47
2010-06-30 11:23 51°24.693 2°31.239 5 303 16.7 101970 47
2010-06-30 11:24 51°24.683 2°31.223 4.5 308 16.7 101970 48
2010-06-30 11:25 51°24.673 2°31.208 5 307 16.8 101970 47
2010-06-30 11:26 51°24.661 2°31.193 3.9 300 16.8 101970 47
2010-06-30 11:27 51°24.65 2°31.179 2.2 309 16.9 101970 48
2010-06-30 11:28 51°24.638 2°31.165 2.9 305 16.9 101960 50
2010-06-30 11:29 51°24.627 2°31.151 3.4 308 16.8 101970 47
2010-06-30 11:30 51°24.615 2°31.138 3.6 302 16.8 101960 50
2010-06-30 11:31 51°24.603 2°31.124 4.2 54 16.8 101970 47
2010-06-30 11:32 51°24.593 2°31.109 3.8 54 16.8 101960 48
2010-06-30 11:33 51°24.582 2°31.097 3.5 52 16.8 101970 47
2010-06-30 11:34 51°24.574 2°31.084 3.7 306 16.8 101970 48
2010-06-30 11:35 51°24.567 2°31.072 4.7 52 16.8 101970 47
2010-06-30 11:36 51°24.559 2°31.058 3.3 306 16.8 101960 50
2010-06-30 11:37 51°24.552 2°31.044 2.6 309 16.8 101960 47
2010-06-30 11:38 51°24.544 2°31.031 4.3 307 16.8 101970 49
2010-06-30 11:39 51°24.569 2°31.017 2.3 310 16.9 101970 48
2010-06-30 11:40 51°24.621 2°31.143 -999 42 16.9 101970 49
2010-06-30 11:41 51°24.699 2°31.309 -999 305 17 101970 49
2010-06-30 11:42 51°24.789 2°31.459 -999 56 17.1 101970 49
2010-06-30 11:43 51°24.835 2°31.56 2.3 54 17.1 101970 49
2010-06-30 11:44 51°24.87 2°31.629 2.5 57 17.1 101970 48
2010-06-30 11:45 51°24.894 2°31.685 1.8 57 17.1 101970 50
2010-06-30 11:46 51°24.904 2°31.733 2.7 58 17 101970 47
2010-06-30 11:47 51°24.9 2°31.739 3 52 17 101970 51
2010-06-30 11:48 51°24.892 2°31.728 5 52 16.9 101970 50
2010-06-30 11:49 51°24.876 2°31.681 4.8 54 16.8 101970 48
2010-06-30 11:50 51°24.861 2°31.621 5.1 58 16.8 101970 50
2010-06-30 11:51 51°24.848 2°31.58 4.2 53 16.7 101970 48
2010-06-30 11:52 51°24.845 2°31.622 1.9 59 16.7 101970 51
2010-06-30 11:53 51°24.88 2°31.741 0.8 52 16.7 101970 49
2010-06-30 11:54 51°24.911 2°31.803 1.9 59 16.8 101970 48
2010-06-30 11:55 51°24.929 2°31.847 1.7 56 16.8 101970 49
2010-06-30 11:56 51°24.938 2°31.871 1.5 52 17 101970 51
2010-06-30 11:57 51°24.945 2°31.886 3.3 53 16.9 101970 51
2010-06-30 11:58 51°24.951 2°31.895 3.6 54 16.9 101970 48
2010-06-30 11:59 51°24.958 2°31.899 3.5 54 16.8 101970 51
2010-06-30 12:00 51°24.968 2°31.907 2.1 54 16.8 101970 48
2010-06-30 12:01 51°24.966 2°31.948 3.9 30 16.9 101970 48
2010-06-30 12:02 51°24.928 2°31.982 4.1 6 16.9 101970 47
2010-06-30 12:03 51°24.858 2°31.985 6 352 16.8 101960 50
2010-06-30 12:04 51°24.757 2°31.894 7.9 336 16.8 101960 48
2010-06-30 12:05 51°24.666 2°31.797 7.6 334 16.8 101960 48
2010-06-30 12:06 51°24.631 2°31.695 7 307 16.8 101960 49
2010-06-30 12:07 51°24.619 2°31.626 6.6 309 16.9 101960 50
2010-06-30 12:08 51°24.611 2°31.589 5.1 302 16.9 101960 50
2010-06-30 12:09 51°24.605 2°31.571 4.6 306 16.9 101960 48
2010-06-30 12:10 51°24.599 2°31.56 5.4 305 16.9 101960 48
2010-06-30 12:11 51°24.592 2°31.555 4.9 309 17 101960 48
2010-06-30 12:12 51°24.583 2°31.551 2.8 307 17 101960 47
2010-06-30 12:13 51°24.571 2°31.547 4.6 308 17 101960 48
2010-06-30 12:14 51°24.56 2°31.542 4.3 309 17 101960 47
2010-06-30 12:15 51°24.547 2°31.537 4.6 56 17 101960 47
2010-06-30 12:16 51°24.538 2°31.533 4.3 52 17 101960 48
2010-06-30 12:17 51°24.529 2°31.527 4.4 54 17 101960 49
2010-06-30 12:18 51°24.522 2°31.524 4.3 13 17 101950 48
2010-06-30 12:19 51°24.517 2°31.521 3.9 301 17 101960 46
2010-06-30 12:20 51°24.51 2°31.517 3.9 307 17 101960 49
2010-06-30 12:21 51°24.507 2°31.515 2.8 302 17 101960 46
2010-06-30 12:22 51°24.503 2°31.511 4 300 17 101950 49
2010-06-30 12:23 51°24.496 2°31.506 5.5 306 17 101960 49
2010-06-30 12:24 51°24.491 2°31.505 3.8 301 17.1 101960 48
2010-06-30 12:25 51°24.485 2°31.506 4.3 308 17.1 101960 46
2010-06-30 12:26 51°24.479 2°31.509 3.8 308 17.1 101960 46
2010-06-30 12:27 51°24.472 2°31.512 2.9 307 17.1 101960 46
2010-06-30 12:28 51°24.464 2°31.515 3.9 308 17.1 101960 49
2010-06-30 12:29 51°24.457 2°31.517 3.9 300 17.1 101950 46
2010-06-30 12:30 51°24.451 2°31.52 3.2 306 17.1 101950 46
2010-06-30 12:31 51°24.445 2°31.523 3.2 306 17 101950 46
2010-06-30 12:32 51°24.441 2°31.53 3.5 310 17 101950 46
2010-06-30 12:33 51°24.434 2°31.534 4.1 301 17 101950 46
2010-06-30 12:34 51°24.428 2°31.539 3.9 306 17 101950 46
2010-06-30 12:35 51°24.423 2°31.544 3.8 303 17 101950 48
2010-06-30 12:36 51°24.419 2°31.551 3.1 309 17 101950 48
2010-06-30 12:37 51°24.415 2°31.558 3.1 301 17 101950 48
2010-06-30 12:38 51°24.411 2°31.565 3.7 302 17 101950 48
2010-06-30 12:39 51°24.407 2°31.572 3.4 307 17 101950 45
2010-06-30 12:40 51°24.404 2°31.581 3.6 306 17 101950 48
2010-06-30 12:41 51°24.401 2°31.59 3.2 306 17.1 101940 47
2010-06-30 12:42 51°24.396 2°31.597 3.1 310 17.1 101950 46
2010-06-30 12:43 51°24.393 2°31.606 3.8 305 17.1 101940 45
2010-06-30 12:44 51°24.391 2°31.618 3.6 310 17.1 101950 45
2010-06-30 12:45 51°24.389 2°31.629 3.3 308 17.1 101950 46
2010-06-30 12:46 51°24.388 2°31.644 3.5 306 17.1 101940 45
2010-06-30 12:47 51°24.403 2°31.631 7.8 306 17.1 101940 45
2010-06-30 12:48 51°24.4 2°31.544 9.7 334 17.2 101920 46
2010-06-30 12:49 51°24.391 2°31.423 9 307 17.2 101910 47
2010-06-30 12:50 51°24.419 2°31.355 8.7 302 17.2 101930 47
2010-06-30 12:51 51°24.447 2°31.324 8.1 304 17.2 101930 46
2010-06-30 12:52 51°24.462 2°31.32 7.3 308 17.3 101930 45
2010-06-30 12:53 51°24.471 2°31.326 6.9 305 17.3 101930 47
2010-06-30 12:54 51°24.476 2°31.343 7.6 300 17.3 101920 45
2010-06-30 12:55 51°24.477 2°31.364 5.2 307 17.4 101930 46
2010-06-30 12:56 51°24.48 2°31.384 4.7 306 17.4 101940 47
2010-06-30 12:57 51°24.483 2°31.403 5.7 308 17.3 101930 47
2010-06-30 12:58 51°24.487 2°31.423 5.7 301 17.3 101930 46
2010-06-30 12:59 51°24.488 2°31.443 3.8 300 17.3 101940 45
2010-06-30 13:00 51°24.488 2°31.465 4.8 306 17.3 101930 47
2010-06-30 13:01 51°24.487 2°31.488 5.8 306 17.3 101930 45
2010-06-30 13:02 51°24.486 2°31.511 6.6 55 17.3 101930 44
2010-06-30 13:03 51°24.484 2°31.533 6.5 53 17.3 101930 48
2010-06-30 13:04 51°24.482 2°31.554 7.2 54 17.3 101930 45
2010-06-30 13:05 51°24.481 2°31.575 6.4 55 17.4 101930 46
2010-06-30 13:06 51°24.48 2°31.596 6.3 55 17.4 101930 46
2010-06-30 13:07 51°24.48 2°31.617 5.5 60 17.4 101930 44
2010-06-30 13:08 51°24.48 2°31.639 6.2 54 17.4 101930 45
2010-06-30 13:09 51°24.481 2°31.66 6.5 53 17.4 101930 44
2010-06-30 13:10 51°24.483 2°31.682 5.1 55 17.5 101930 45
2010-06-30 13:11 51°24.484 2°31.706 6.8 58 17.5 101930 45
2010-06-30 13:12 51°24.485 2°31.73 6.3 52 17.5 101930 46
2010-06-30 13:13 51°24.486 2°31.757 6.5 14 17.5 101930 46
2010-06-30 13:14 51°24.485 2°31.784 6.2 313 17.5 101920 46
2010-06-30 13:15 51°24.485 2°31.811 5.2 52 17.5 101930 44
2010-06-30 13:16 51°24.487 2°31.839 7.3 53 17.5 101920 46
2010-06-30 13:17 51°24.517 2°31.886 4.9 311 17.4 101930 44
2010-06-30 13:18 51°24.614 2°31.953 6.6 308 17.5 101920 47
2010-06-30 13:19 51°24.736 2°32.001 6.2 304 17.6 101920 47
2010-06-30 13:20 51°24.857 2°32.051 5.9 306 17.7 101920 44
2010-06-30 13:21 51°24.933 2°32.054 6 307 17.9 101920 45
2010-06-30 13:22 51°24.984 2°32.051 7.6 301 17.9 101910 46
2010-06-30 13:23 51°25.023 2°32.053 6.9 307 17.9 101910 46
2010-06-30 13:24 51°25.053 2°32.061 6.6 306 17.9 101910 45
2010-06-30 13:25 51°25.078 2°32.07 5.8 304 18 101910 45
2010-06-30 13:26 51°25.1 2°32.068 6.2 306 18 101910 44
2010-06-30 13:27 51°25.117 2°32.057 6.3 301 17.9 101910 46
2010-06-30 13:28 51°25.128 2°32.055 7 329 17.9 101910 45
2010-06-30 13:29 51°25.131 2°32.052 6.9 346 17.8 101910 45
2010-06-30 13:30 51°25.106 2°32.057 7.6 358 17.6 101900 46
2010-06-30 13:31 51°25.058 2°32.058 8.5 354 17.4 101910 47
2010-06-30 13:32 51°25.009 2°32.043 7.2 353 17.3 101900 48
2010-06-30 13:33 51°24.988 2°32.043 6.7 352 17.2 101910 48
2010-06-30 13:34 51°24.99 2°32.07 6.2 354 17.2 101910 46
2010-06-30 13:35 51°24.997 2°32.104 5 5 17.1 101920 46
2010-06-30 13:36 51°25.01 2°32.143 5.9 18 17.1 101910 47
2010-06-30 13:37 51°25.022 2°32.182 5.9 23 17.1 101920 46
2010-06-30 13:38 51°25.035 2°32.221 6.8 23 17.2 101920 48
2010-06-30 13:39 51°25.049 2°32.261 6.3 27 17.1 101920 48
2010-06-30 13:40 51°25.063 2°32.3 6 25 17.2 101920 48
2010-06-30 13:41 51°25.077 2°32.341 5.3 24 17.2 101910 46
2010-06-30 13:42 51°25.091 2°32.382 6.7 23 17.2 101910 46
2010-06-30 13:43 51°25.106 2°32.423 5.7 20 17.2 101910 46
2010-06-30 13:44 51°25.121 2°32.466 5.6 23 17.3 101900 45
2010-06-30 13:45 51°25.137 2°32.508 5.8 26 17.3 101900 45
2010-06-30 13:46 51°25.154 2°32.551 5.5 21 17.4 101910 46
2010-06-30 13:47 51°25.171 2°32.595 5.7 23 17.3 101910 45
2010-06-30 13:48 51°25.185 2°32.642 5.6 18 17.3 101910 45
2010-06-30 13:49 51°25.129 2°32.735 7.8 5 17.3 101900 45
2010-06-30 13:50 51°24.988 2°32.845 8.5 353 17.3 101900 45
2010-06-30 13:51 51°24.791 2°32.936 10.8 353 17.2 101880 46
2010-06-30 13:52 51°24.583 2°33.03 10.6 352 17.2 101880 45
2010-06-30 13:53 51°24.374 2°33.127 12.6 355 17.2 101880 46
2010-06-30 13:54 51°24.164 2°33.223 11.9 353 17.2 101880 45
2010-06-30 13:55 51°23.955 2°33.317 12.7 354 17.2 101880 46
2010-06-30 13:56 51°23.745 2°33.359 11.9 345 17.2 101880 45
2010-06-30 13:57 51°23.553 2°33.241 15.2 340 17.2 101880 45
2010-06-30 13:58 51°23.381 2°33.061 15.3 340 17.3 101890 46
2010-06-30 13:59 51°23.21 2°32.876 14.3 341 17.3 101880 46
2010-06-30 14:00 51°23.039 2°32.693 14.4 341 17.3 101890 46
2010-06-30 14:01 51°22.871 2°32.509 14.8 341 17.3 101890 45
2010-06-30 14:02 51°22.705 2°32.33 15.4 341 17.4 101880 45
2010-06-30 14:03 51°22.519 2°32.207 12.5 345 17.3 101870 45
2010-06-30 14:04 51°22.316 2°32.135 12.5 347 17.3 101880 45
2010-06-30 14:05 51°22.107 2°32.083 13.1 349 17.1 101880 46
2010-06-30 14:06 51°21.898 2°32.076 11.8 352 17.1 101870 45
2010-06-30 14:07 51°21.685 2°32.122 12.3 357 17 101870 46
2010-06-30 14:08 51°21.473 2°32.2 10.9 1 17 101870 45
2010-06-30 14:09 51°21.292 2°32.404 7.2 8 17 101890 46
2010-06-30 14:10 51°21.188 2°32.739 5.3 21 17 101910 46
2010-06-30 14:11 51°21.123 2°33.105 4.4 15 17 101920 45
2010-06-30 14:12 51°21.037 2°33.461 5.8 16 17.1 101910 46
2010-06-30 14:13 51°20.928 2°33.799 6.4 12 17.1 101910 47
2010-06-30 14:14 51°20.82 2°34.14 5.6 12 17.1 101910 47
2010-06-30 14:15 51°20.718 2°34.488 4.9 9 17.1 101910 45
2010-06-30 14:16 51°20.618 2°34.831 5 8 17.1 101900 45
2010-06-30 14:17 51°20.518 2°35.176 3.6 7 17.1 101900 45
2010-06-30 14:18 51°20.418 2°35.522 4.2 8 17.2 101900 45
2010-06-30 14:19 51°20.317 2°35.871 4.3 8 17.2 101900 46
2010-06-30 14:20 51°20.211 2°36.219 4.2 7 17.2 101900 45
2010-06-30 14:21 51°20.105 2°36.573 4.1 6 17.3 101900 47
2010-06-30 14:22 51°20.003 2°36.917 5.3 9 17.3 101900 47
2010-06-30 14:23 51°19.898 2°37.264 5.1 12 17.3 101900 45
2010-06-30 14:24 51°19.796 2°37.614 4.7 8 17.3 101900 45
2010-06-30 14:25 51°19.69 2°37.963 5.6 10 17.4 101890 47
2010-06-30 14:26 51°19.584 2°38.308 4 11 17.4 101890 47
2010-06-30 14:27 51°19.477 2°38.653 4.8 12 17.4 101890 47
2010-06-30 14:28 51°19.373 2°39.005 4.4 10 17.5 101890 47
2010-06-30 14:29 51°19.271 2°39.348 5.1 15 17.5 101890 46
2010-06-30 14:30 51°19.171 2°39.689 4.2 17 17.5 101890 45
2010-06-30 14:31 51°19.074 2°40.032 3.8 14 17.6 101890 47
2010-06-30 14:32 51°18.973 2°40.376 4.2 12 17.6 101890 47
2010-06-30 14:33 51°18.868 2°40.723 3.9 12 17.7 101890 45
2010-06-30 14:34 51°18.752 2°41.07 5 12 17.7 101890 47
2010-06-30 14:35 51°18.633 2°41.399 5.1 14 17.7 101890 46
2010-06-30 14:36 51°18.515 2°41.73 3.9 17 17.7 101880 45
2010-06-30 14:37 51°18.373 2°42.024 5 7 17.6 101880 46
2010-06-30 14:38 51°18.205 2°42.267 6 3 17.6 101870 47
2010-06-30 14:39 51°18.03 2°42.494 5.8 6 17.6 101880 46
2010-06-30 14:40 51°17.866 2°42.731 6.7 9 17.6 101870 45
2010-06-30 14:41 51°17.709 2°43.005 4.4 8 17.6 101870 46
2010-06-30 14:42 51°17.575 2°43.309 4.4 4 17.6 101880 47
2010-06-30 14:43 51°17.436 2°43.62 4.6 7 17.6 101880 45
2010-06-30 14:44 51°17.297 2°43.92 5 8 17.6 101870 45
2010-06-30 14:45 51°17.154 2°44.219 4.5 7 17.6 101870 45
2010-06-30 14:46 51°17.011 2°44.509 5.5 10 17.6 101880 45
2010-06-30 14:47 51°16.872 2°44.81 3.3 7 17.6 101870 46
2010-06-30 14:48 51°16.747 2°45.11 4.1 6 17.6 101870 45
2010-06-30 14:49 51°16.62 2°45.418 3 5 17.7 101870 47
2010-06-30 14:50 51°16.484 2°45.711 3.9 7 17.7 101870 45
2010-06-30 14:51 51°16.349 2°46.001 5.2 7 17.7 101870 45
2010-06-30 14:52 51°16.222 2°46.306 3.1 8 17.7 101880 46
2010-06-30 14:53 51°16.111 2°46.64 2.9 9 17.7 101870 46
2010-06-30 14:54 51°16.01 2°47.001 1.9 2 17.7 101870 47
2010-06-30 14:55 51°15.921 2°47.358 1.9 357 17.7 101870 44
2010-06-30 14:56 51°15.855 2°47.749 1.1 7 17.8 101870 45
2010-06-30 14:57 51°15.825 2°48.141 0.3 349 17.8 101870 46
2010-06-30 14:58 51°15.803 2°48.537 0.4 352 17.9 101870 47
2010-06-30 14:59 51°15.779 2°48.931 0.5 -999 17.9 101870 46
2010-06-30 15:00 51°15.754 2°49.316 0.8 -999 18 101870 47
2010-06-30 15:01 51°15.732 2°49.703 0.1 7 18 101880 46
2010-06-30 15:02 51°15.708 2°50.092 0.1 12 18.1 101870 46
2010-06-30 15:03 51°15.682 2°50.505 0.3 349 18.1 101870 46
2010-06-30 15:04 51°15.659 2°50.912 0.2 1 18.2 101870 46
2010-06-30 15:05 51°15.64 2°51.312 0.7 356 18.2 101870 46
2010-06-30 15:06 51°15.629 2°51.6 1.4 53 18.3 101870 46
2010-06-30 15:07 51°15.629 2°51.813 1.7 55 18.4 101870 45
2010-06-30 15:08 51°15.631 2°52.002 2.5 60 18.5 101870 47
2010-06-30 15:09 51°15.635 2°52.185 3.2 52 18.5 101870 45
2010-06-30 15:10 51°15.637 2°52.364 1.4 57 18.4 101870 44
2010-06-30 15:11 51°15.639 2°52.539 2.7 59 18.4 101870 44
2010-06-30 15:12 51°15.641 2°52.715 2.2 58 18.4 101870 44
2010-06-30 15:13 51°15.644 2°52.889 2.8 53 18.4 101880 46
2010-06-30 15:14 51°15.647 2°53.064 1.8 58 18.4 101870 45
2010-06-30 15:15 51°15.651 2°53.239 0.9 55 18.5 101870 45
2010-06-30 15:16 51°15.655 2°53.414 1.8 54 18.6 101870 47
2010-06-30 15:17 51°15.657 2°53.587 2.4 55 18.7 101870 45
2010-06-30 15:18 51°15.657 2°53.749 2.4 51 18.7 101870 44
2010-06-30 15:19 51°15.66 2°53.896 2 54 18.8 101870 45
2010-06-30 15:20 51°15.643 2°54.093 2.3 18 18.7 101870 45
2010-06-30 15:21 51°15.5 2°54.288 5.2 2 18.7 101860 46
2010-06-30 15:22 51°15.318 2°54.439 5.2 4 18.5 101860 44
2010-06-30 15:23 51°15.134 2°54.595 7.5 2 18.4 101860 47
2010-06-30 15:24 51°14.947 2°54.759 5.9 353 18.3 101870 45
2010-06-30 15:25 51°14.753 2°54.897 6.5 2 18.2 101860 47
2010-06-30 15:26 51°14.558 2°55.04 6.9 359 18.2 101870 47
2010-06-30 15:27 51°14.369 2°55.195 5.9 7 18.2 101860 46
2010-06-30 15:28 51°14.224 2°55.338 5.3 10 18.2 101870 47
2010-06-30 15:29 51°14.111 2°55.426 3.1 357 18.4 101880 46
2010-06-30 15:30 51°14.005 2°55.505 2.8 342 18.5 101880 45
2010-06-30 15:31 51°13.898 2°55.58 3.3 16 18.7 101870 45
2010-06-30 15:32 51°13.804 2°55.647 3 9 18.8 101880 44
2010-06-30 15:33 51°13.746 2°55.732 0.1 15 18.9 101880 43
2010-06-30 15:34 51°13.702 2°55.829 2.1 34 19 101880 42
2010-06-30 15:35 51°13.673 2°55.911 3.1 53 19 101870 42
2010-06-30 15:36 51°13.664 2°55.956 4.2 57 19.2 101870 44